Location: Phoenix
(33.4480°N, 112.0730°W)
Time: 05:21:19
(UTC-07:00)

ISS - All Passes

Search period start: 20 December 2014 00:00
Search period end: 30 December 2014 00:00
Orbit: 404 x 415 km, 51.6° (Epoch: 20 December)

Date Brightness Start Highest point End Pass type
(mag) Time Alt. Az. Time Alt. Az. Time Alt. Az.
20 Dec - 13:22:51 10° SW 13:26:08 77° SE 13:29:26 10° NE daylight
20 Dec - 15:01:38 10° NW 15:03:04 12° NNW 15:04:30 10° N daylight
20 Dec - 19:55:10 10° N 19:57:14 16° NNE 19:59:17 10° ENE night (unlit)
20 Dec - 21:30:50 10° WNW 21:34:00 48° SW 21:37:08 10° SSE night (unlit)
21 Dec - 12:32:25 10° SSW 12:35:27 34° SE 12:38:29 10° ENE daylight
21 Dec - 14:09:36 10° W 14:12:05 19° NW 14:14:34 10° NNE daylight
21 Dec - 20:40:00 10° NW 20:43:16 75° NE 20:46:30 10° SE night (unlit)
22 Dec - 11:42:34 10° S 11:44:47 17° SE 11:46:59 10° E daylight
22 Dec - 13:18:06 10° WSW 13:21:08 34° NW 13:24:11 10° NNE daylight
22 Dec - 19:49:21 10° NNW 19:52:24 35° NE 19:55:26 10° ESE visible
22 Dec - 21:26:42 10° W 21:28:43 16° SW 21:30:44 10° SSW night (unlit)
23 Dec - 12:26:56 10° SW 12:30:14 70° NW 12:33:31 10° NE daylight
23 Dec - 18:58:53 10° NNW 19:01:24 20° NE 19:03:54 10° E visible
23 Dec - 20:35:03 10° WNW 20:38:00 32° SW 20:40:56 10° SSE night (unlit)
24 Dec - 11:36:08 10° SSW 11:39:21 52° SE 11:42:34 10° NE daylight
24 Dec - 13:14:06 10° WNW 13:16:08 15° NNW 13:18:10 10° N daylight
24 Dec - 18:08:46 10° N 18:10:16 13° NNE 18:11:46 10° ENE visible
24 Dec - 19:43:54 10° NW 19:47:10 72° SW 19:50:24 10° SE visible
25 Dec - 10:45:46 10° S 10:48:30 24° SE 10:51:14 10° ENE daylight
25 Dec - 12:22:11 10° W 12:24:59 25° NW 12:27:48 10° NNE daylight
25 Dec - 18:52:59 10° NW 18:56:11 51° NE 18:59:22 10° ESE visible
25 Dec - 20:31:38 10° WSW 20:32:22 11° SW 20:33:06 10° SW visible
26 Dec - 09:56:23 10° SSE 09:57:40 12° SE 09:58:58 10° ESE daylight
26 Dec - 11:30:41 10° WSW 11:33:53 47° NW 11:37:06 10° NE daylight
26 Dec - 18:02:15 10° NNW 18:05:05 26° NE 18:07:54 10° E visible
26 Dec - 19:38:57 10° WNW 19:41:32 22° SW 19:44:07 10° S visible
27 Dec - 10:39:32 10° SW 10:42:50 79° SE 10:46:08 10° NE daylight
27 Dec - 12:18:21 10° NW 12:19:45 12° NNW 12:21:08 10° N daylight
27 Dec - 17:11:45 10° N 17:13:51 16° NNE 17:15:57 10° ENE daylight
27 Dec - 18:47:25 10° WNW 18:50:35 47° SW 18:53:43 10° SSE visible
28 Dec - 09:48:46 10° SSW 09:51:48 35° SE 09:54:50 10° ENE daylight
28 Dec - 11:25:57 10° W 11:28:25 19° NW 11:30:53 10° NNE daylight
28 Dec - 16:22:24 10° NNE 16:22:28 10° NNE 16:22:32 10° NNE daylight
28 Dec - 17:56:14 10° NW 17:59:30 76° NE 18:02:45 10° SE visible
29 Dec - 08:58:35 10° S 09:00:47 17° SE 09:03:00 10° E daylight
29 Dec - 10:34:05 10° WSW 10:37:07 34° NW 10:40:10 10° NNE daylight
29 Dec - 17:05:15 10° NNW 17:08:18 35° NE 17:11:20 10° ESE daylight
29 Dec - 18:42:35 10° W 18:44:36 16° SW 18:46:37 10° SSW visible
